Retour au catalogue

METEOR 1-23

ActifMétéoPO
NORAD 8519·PAYLOAD·🇷🇺 Russia

Lancé Dec 25, 1975 depuis Plesetsk Cosmodrome

Loading…

Prochains Passages (prochaines 24 heures)

TLE

FraisSource: Space-Track

Époque: Sep 14, 2026, 08:13 UTC

1 08519U 75124A   26257.34264478  .00000100  00000-0  48099-4 0  9997
2 08519  81.2445  37.4688 0014528  72.6781 287.5978 14.11404489609463

Suivez METEOR 1-23 en temps réel avec AllMySat

Download on the App Store